AirNav   Air Wisconsin pilot careers
 
 1125 users online  

Y89 Kalkaska City Airport
Kalkaska, Michigan, USA

GOING TO KALKASKA?


FAA INFORMATION EFFECTIVE 03 JANUARY 2019

Location

FAA Identifier: Y89
Lat/Long: 44-43-30.6600N / 085-12-11.2500W
44-43.511000N / 085-12.187500W
44.7251833 / -85.2031250
(estimated)
Elevation: 1030 ft. / 313.9 m (surveyed)
Variation: 05W (1985)
From city: 1 mile SW of KALKASKA, MI
Time zone: UTC -5 (UTC -4 during Daylight Saving Time)
Zip code: 49646

Airport Operations

Airport use: Open to the public
Activation date: 09/1960
Control tower: no
ARTCC: MINNEAPOLIS CENTER
FSS: LANSING FLIGHT SERVICE STATION
NOTAMs facility: LAN (NOTAM-D service available)
Attendance: UNATNDD
Wind indicator: lighted
Segmented circle: yes
Lights: ACTVT MIRL RY 10/28 & PAPI RYS 10 & 28 - CTAF.

Airport Communications

CTAF: 122.9
WX AWOS-3 at ACB (16 nm N): 119.275 (231-533-8941)
WX ASOS at TVC (16 nm W): 119.175 (231-486-2920)

Nearby radio navigation aids

VOR radial/distance  VOR name  Freq  Var
TVCr079/15.2TRAVERSE CITY VOR/DME114.6002W
CGGr283/(20.4)GRAYLING VOR109.8006W
GLRr237/27.3GAYLORD VOR/DME109.2006W

 
NDB name  Hdg/Dist  Freq  Var  ID
GWENN098/9.636505WTV - ...-
GRAYLING271/16.035906WGYG --. -.-- --.
CHARLEVOIX180/34.739205WCVX -.-. ...- -..-

Airport Services

Parking: tiedowns

Runway Information

Runway 10/28

Dimensions: 3500 x 75 ft. / 1067 x 23 m
Surface: asphalt, in good condition
Runway edge lights: medium intensity
Runway edge markings: MKG FADED
RUNWAY 10  RUNWAY 28
Latitude: 44-43.570833N44-43.451267N
Longitude: 085-12.582667W085-11.792260W
Traffic pattern: leftleft
Markings: basic, in poor conditionbasic, in poor condition
Visual slope indicator: 2-light PAPI on left (3.00 degrees glide path)2-light PAPI on left (4.00 degrees glide path)
Obstructions: 33 ft. trees, 662 ft. from runway, 130 ft. left of centerline, 14:1 slope to clear68 ft. trees, 1356 ft. from runway, 17:1 slope to clear

Airport Ownership and Management from official FAA records

Ownership: Publicly-owned
Owner: VILLAGE OF KALKASKA
200 HYDE
KALKASKA, MI 49646
Phone 231-258-9191
ARPT PHYSICAL LOCATION 1325 ISLAND LK RD
Manager: SCOTT YOST
200 HYDE
KALKASKA, MI 49646
Phone 231-258-9191
AFTER HRS FIELD CONDITIONS, CTC CENTRAL DISPATCH 231-258-3350.

Airport Operational Statistics

Aircraft based on the field: 5
Single engine airplanes: 5
    
Aircraft operations: avg 51/week *
50% transient general aviation
50% local general aviation
* for 12-month period ending 31 December 2015

Additional Remarks

ADMIN BLDG & PHONE 300 FT WEST OF ACFT PKG AREA, IN TRANSIT AUTHORTY OFFICE. ACCESS PRESS 5, THEN 3-2 SIMULTANEOUS, THEN 1.
DEER & BIRDS ON & INVOF ARPT.

Instrument Procedures

There are no published instrument procedures at Y89.

Some nearby airports with instrument procedures:

KACB - Antrim County Airport (16 nm N)
KTVC - Cherry Capital Airport (16 nm W)
KGOV - Grayling Army Airfield (20 nm E)
KGLR - Gaylord Regional Airport (27 nm NE)
KCAD - Wexford County Airport (29 nm S)
 
Loc | Ops | Rwys | IFR | FBO | Links
Com | Nav | Svcs | Stats | Notes
Area around Y89 (Kalkaska City Airport)
 
Road maps at: MapQuest Bing Google
 
Aerial photo
WARNING: Photo may not be current or correct
Aerial photo of Y89 (Kalkaska City Airport)
Photo taken 01-Oct-2006

Do you have a better or more recent aerial photo of Kalkaska City Airport that you would like to share? If so, please send us your photo.

 
Sectional chart

 
Airport distance calculator
Flying to Kalkaska City Airport? Find the distance to fly.

From to Y89

Sunrise and sunset
Times for 16-Jan-2019
 Local
(UTC-5)
 Zulu
(UTC)
Morning civil twilight07:4312:43
Sunrise08:1513:15
Sunset17:2622:26
Evening civil twilight17:5922:59

Current date and time
Zulu (UTC)  16-Jan-2019 23:30:52
Local (UTC-5)  16-Jan-2019 18:30:52
 
METAR
KACB 
15nm N 
162316Z AUTO 00000KT 10SM -SN OVC029 M07/M12 A3032 RMK AO2 T10711124
KTVC 
16nm W 
162253Z 28005KT 9SM -SN OVC030 M07/M12 A3030 RMK AO2 SLP272 P0000 T10671122
KGOV 
20nm E 
162258Z AUTO 32003KT 10SM OVC026 M09/M14 A3026 RMK AO2 SLP276 T10931139 $
KGLR 
28nm NE 
162253Z AUTO 32005KT 10SM OVC026 M11/M14 A3025 RMK AO2 SLP270 T11061139
KCAD 
29nm S 
162316Z AUTO 36003KT 10SM CLR M09/M15 A3024 RMK AO2 T10961151
TAF
KTVC 
16nm W 
162119Z 1621/1718 32007KT P6SM -SHSN BKN035 FM162300 VRB03KT P6SM BKN035 FM170300 19005KT P6SM SCT035 BKN150 FM170600 17006KT P6SM SCT150 FM171500 15004KT P6SM BKN120
NOTAMs
Click for the latest NOTAMs
NOTAMs are issued by the DoD/FAA and will open in a separate window not controlled by AirNav.

 

 
 

Would you like to see your business listed on this page?

 If your business provides an interesting product or service to pilots, flight crews, aircraft, or users of the Kalkaska City Airport, you should consider listing it here.  To start the listing process, click on the button below
 
Add a business
 

Other Pages about Kalkaska City Airport

Page from the Michigan Airport Directory (PDF)
 
Update a link
 
Copyright © AirNav, LLC. All rights reserved. Privacy Policy  Contact